RH
54 53 51 51 48 46 46 47 47 47 49 50 51 52 52 51 50 48 47 46 46 46 45 44 41 39 38 38 38 40 40 38 36 35 33 30 30 30 30 28 29 33 35
50 50 49 48 47 47 48 48 48 47 49 50 51 51 51 51 52 52 52 52 52 51 50 50 51 50 48 46 45 43 43 41 41 40 38 37 35 35 33 32 31 31 34
48 47 46 47 48 49 50 52 50 49 50 52 52 52 53 54 55 56 56 57 58 58 58 57 57 55 54 54 53 51 50 49 49 48 46 46 46 43 40 39 37 35 34
44 43 44 46 49 51 52 53 54 55 55 58 58 59 60 61 62 63 63 62 62 61 60 59 58 57 56 55 54 54 53 53 53 52 51 51 50 49 47 44 42 41 40
44 43 44 46 48 51 53 54 55 57 58 61 63 65 65 65 64 64 63 62 61 60 59 58 58 57 56 56 56 55 55 55 55 55 54 54 54 52 52 50 48 44 44
46 46 45 46 48 48 49 51 54 56 57 59 61 62 62 62 61 60 60 59 59 57 55 51 49 49 48 47 47 47 49 51 54 56 56 57 57 56 55 53 52 52 51
54 50 47 46 46 46 46 46 46 48 51 53 54 54 54 53 52 50 48 45 43 42 41 40 39 38 37 37 38 39 40 40 42 44 45 47 49 51 53 54 51 50 49
55 52 49 47 47 46 45 44 43 42 41 41 41 40 39 39 37 36 35 34 34 33 32 31 30 29 29 28 27 27 26 27 30 33 35 36 38 40 43 44 42 40 42
58 55 52 50 48 45 43 42 41 42 42 41 41 40 39 39 39 37 36 35 33 32 31 30 29 28 28 26 25 24 22 21 20 19 19 20 24 28 31 33 33 36 37
62 60 56 54 54 52 51 50 49 48 47 46 45 44 43 42 40 39 37 36 35 34 32 30 26 24 22 20 19 17 16 16 15 15 15 15 15 15 15 15 18 21 25
62 60 57 56 56 56 56 56 55 54 53 52 50 48 47 46 44 42 40 37 33 30 29 27 25 22 20 19 18 17 16 16 15 15 15 15 14 14 14 14 14 14 14
63 64 65 65 64 63 62 60 59 57 55 54 54 54 51 48 44 40 38 36 34 31 28 25 23 21 19 18 18 17 16 17 17 17 17 16 16 16 15 15 15 14 14
72 70 68 66 65 63 61 61 60 60 59 58 55 52 49 47 44 40 37 32 28 24 21 18 16 15 15 14 14 13 13 13 12 12 12 12 12 12 12 12 13 13 13
75 73 72 70 68 67 65 64 62 61 60 58 55 51 47 43 35 29 24 20 17 16 15 15 14 14 13 13 13 13 13 12 12 12 11 11 11 10 10 11 12 15 13
78 77 75 75 72 71 70 67 62 59 55 51 45 35 25 19 18 17 17 17 17 16 16 16 16 15 14 13 13 12 12 11 10 10 10 9 9 9 8 10 9 9 14
81 84 82 77 73 68 65 61 56 50 40 28 21 21 22 22 18 16 16 17 17 14 14 14 14 13 13 12 12 12 12 10 9 8 8 8 8 8 7 7 9 18 19
90 81 77 74 70 66 59 48 36 30 27 24 22 18 16 16 16 15 15 16 16 16 15 14 14 13 12 12 12 11 15 10 9 9 8 8 8 8 8 8 12 16 18
85 82 77 67 58 52 42 35 30 23 17 13 12 14 16 17 17 17 16 16 16 16 15 15 15 14 13 13 12 12 14 10 10 10 10 10 9 10 11 15 19 19 18
75 69 68 61 45 32 21 18 18 17 17 17 17 17 17 17 17 18 18 18 18 17 17 16 16 16 15 15 14 14 13 12 11 12 12 13 13 16 20 30 29 25 23
66 55 43 31 22 17 17 16 16 15 16 16 18 19 20 20 19 19 18 19 19 19 19 19 19 19 18 18 18 17 17 17 16 16 16 19 23 33 33 32 34 32 38
33 23 19 16 14 14 15 15 17 20 20 20 20 20 20 19 19 19 19 20 20 20 20 21 22 23 24 24 23 22 25 28 27 26 26 27 27 28 35 41 45 45 45
15 12 15 16 15 16 19 21 21 21 21 20 20 19 19 19 19 20 20 21 21 22 23 24 25 27 29 31 29 28 32 35 40 36 34 31 29 35 39 48 48 45 46
13 15 17 20 23 22 22 22 22 22 22 22 23 23 23 24 24 25 26 26 28 28 28 28 28 29 32 34 37 34 40 40 42 38 36 42 44 52 50 45 41 46 40
20 23 24 24 25 27 29 29 28 27 26 26 25 26 27 28 29 31 34 35 36 37 36 36 35 35 35 37 43 45 45 43 40 38 46 45 48 56 56 54 50 51 51
27 28 28 27 26 25 24 23 24 24 23 23 24 25 27 28 29 32 36 38 39 43 43 42 46 47 45 48 52 53 53 55 52 56 61 58 60 61 57 60 62 64 61
28 26 24 21 19 17 15 15 16 17 17 18 19 21 23 26 28 30 30 35 42 46 49 51 54 53 51 52 58 63 67 71 74 80 78 74 71 70 70 71 70 68 68